Time,TemperatureF,DewpointF,PressureIn,WindDirection,WindDirectionDegrees,WindSpeedMPH,WindSpeedGustMPH,Humidity,HourlyPrecipIn,Conditions,Clouds,dailyrainin,SoftwareType,DateUTC
2013-07-14 00:01:00,73.1,73.0,30.35,SSE,157,0.0,1.6,100,0.00,,,0.00,Rainwise IP-100,2013-07-14 04:01:00,
2013-07-14 00:06:00,73.1,73.0,30.34,SSE,157,0.0,1.9,100,0.00,,,0.00,Rainwise IP-100,2013-07-14 04:06:00,
2013-07-14 00:11:00,73.0,73.0,30.34,SSE,157,0.0,1.4,100,0.00,,,0.00,Rainwise IP-100,2013-07-14 04:11:00,
2013-07-14 00:16:00,73.0,73.0,30.34,SSE,157,0.0,2.1,100,0.00,,,0.00,Rainwise IP-100,2013-07-14 04:16:00,
2013-07-14 00:21:00,73.0,73.0,30.34,SSE,157,0.0,1.9,100,0.00,,,0.00,Rainwise IP-100,2013-07-14 04:21:00,
2013-07-14 00:26:00,73.0,73.0,30.34,South,180,1.9,2.1,100,0.00,,,0.00,Rainwise IP-100,2013-07-14 04:26:00,
2013-07-14 00:31:00,73.0,73.0,30.34,South,180,0.0,2.1,100,0.00,,,0.00,Rainwise IP-100,2013-07-14 04:31:00,
2013-07-14 00:36:00,73.0,73.0,30.34,South,180,0.0,1.9,100,0.00,,,0.00,Rainwise IP-100,2013-07-14 04:36:00,
2013-07-14 00:41:00,73.0,73.0,30.34,South,180,0.0,0.0,100,0.00,,,0.00,Rainwise IP-100,2013-07-14 04:41:00,
2013-07-14 00:46:00,73.0,73.0,30.35,South,180,0.0,0.0,100,0.00,,,0.00,Rainwise IP-100,2013-07-14 04:46:00,
2013-07-14 00:51:00,73.0,73.0,30.35,South,180,0.0,1.2,100,0.00,,,0.00,Rainwise IP-100,2013-07-14 04:51:00,
2013-07-14 00:56:00,73.0,73.0,30.35,WSW,247,0.0,1.4,100,0.00,,,0.00,Rainwise IP-100,2013-07-14 04:56:00,
2013-07-14 01:01:00,73.1,73.0,30.35,North,360,1.6,1.9,100,0.00,,,0.00,Rainwise IP-100,2013-07-14 05:01:00,
2013-07-14 01:06:00,73.2,73.3,30.34,SW,225,1.4,3.3,100,0.00,,,0.00,Rainwise IP-100,2013-07-14 05:06:00,
2013-07-14 01:11:00,73.2,73.3,30.35,North,360,1.9,2.8,100,0.00,,,0.00,Rainwise IP-100,2013-07-14 05:11:00,
2013-07-14 01:14:00,73.2,73.3,30.35,NW,315,0.0,2.8,100,0.00,,,0.00,Rainwise IP-100,2013-07-14 05:14:00,
2013-07-14 01:19:00,73.2,73.3,30.34,WSW,247,1.2,3.7,100,0.00,,,0.00,Rainwise IP-100,2013-07-14 05:19:00,
2013-07-14 01:24:00,73.2,73.3,30.34,North,360,1.2,5.4,100,0.00,,,0.00,Rainwise IP-100,2013-07-14 05:24:00,
2013-07-14 01:29:00,73.2,73.3,30.34,WSW,247,2.6,4.7,100,0.00,,,0.00,Rainwise IP-100,2013-07-14 05:29:00,
2013-07-14 01:34:00,73.2,73.3,30.35,NW,315,1.2,4.2,100,0.00,,,0.00,Rainwise IP-100,2013-07-14 05:34:00,
2013-07-14 01:39:00,73.2,73.3,30.35,NW,315,0.0,2.6,100,0.00,,,0.00,Rainwise IP-100,2013-07-14 05:39:00,
2013-07-14 01:44:00,73.3,73.3,30.34,NW,315,1.6,4.0,100,0.00,,,0.00,Rainwise IP-100,2013-07-14 05:44:00,
2013-07-14 01:49:00,73.4,73.3,30.35,NW,315,4.9,4.9,100,0.00,,,0.00,Rainwise IP-100,2013-07-14 05:49:00,
2013-07-14 01:54:00,73.4,73.3,30.34,NW,315,1.9,5.4,100,0.00,,,0.00,Rainwise IP-100,2013-07-14 05:54:00,
2013-07-14 01:59:00,73.4,73.3,30.34,NW,315,4.4,4.4,100,0.00,,,0.00,Rainwise IP-100,2013-07-14 05:59:00,
2013-07-14 02:04:00,73.4,73.3,30.35,NW,315,3.0,6.5,100,0.00,,,0.00,Rainwise IP-100,2013-07-14 06:04:00,
2013-07-14 02:09:00,73.4,73.3,30.34,NW,315,4.2,4.7,100,0.00,,,0.00,Rainwise IP-100,2013-07-14 06:09:00,
2013-07-14 02:14:00,73.4,73.3,30.34,NNW,337,2.8,4.7,100,0.00,,,0.00,Rainwise IP-100,2013-07-14 06:14:00,
2013-07-14 02:19:00,73.4,73.3,30.34,NNW,337,0.0,3.7,100,0.00,,,0.00,Rainwise IP-100,2013-07-14 06:19:00,
2013-07-14 02:24:00,73.4,73.3,30.34,NNW,337,2.6,2.6,100,0.00,,,0.00,Rainwise IP-100,2013-07-14 06:24:00,
2013-07-14 02:29:00,73.4,73.3,30.34,NNW,337,1.2,4.0,100,0.00,,,0.00,Rainwise IP-100,2013-07-14 06:29:00,
2013-07-14 02:34:00,73.4,73.3,30.34,SSW,202,0.0,2.1,100,0.00,,,0.00,Rainwise IP-100,2013-07-14 06:34:00,
2013-07-14 02:39:00,73.4,73.3,30.34,WSW,247,2.1,2.1,100,0.00,,,0.00,Rainwise IP-100,2013-07-14 06:39:00,
2013-07-14 02:44:00,73.3,73.3,30.34,North,360,0.0,3.0,100,0.00,,,0.00,Rainwise IP-100,2013-07-14 06:44:00,
2013-07-14 02:49:00,73.3,73.3,30.34,NW,315,2.3,3.0,100,0.00,,,0.00,Rainwise IP-100,2013-07-14 06:49:00,
2013-07-14 02:54:00,73.3,73.3,30.34,NW,315,1.9,3.3,100,0.00,,,0.00,Rainwise IP-100,2013-07-14 06:54:00,
2013-07-14 02:59:00,73.3,73.3,30.34,NW,315,1.4,4.4,100,0.00,,,0.00,Rainwise IP-100,2013-07-14 06:59:00,
2013-07-14 03:04:00,73.4,73.3,30.34,NW,315,1.9,2.8,100,0.00,,,0.00,Rainwise IP-100,2013-07-14 07:04:00,
2013-07-14 03:09:00,73.4,73.3,30.34,NW,315,2.8,3.5,100,0.00,,,0.00,Rainwise IP-100,2013-07-14 07:09:00,
2013-07-14 03:14:00,73.4,73.3,30.34,NW,315,1.4,3.5,100,0.00,,,0.00,Rainwise IP-100,2013-07-14 07:14:00,
2013-07-14 03:19:00,73.4,73.3,30.33,NW,315,2.1,3.3,100,0.00,,,0.00,Rainwise IP-100,2013-07-14 07:19:00,
2013-07-14 03:24:00,73.4,73.3,30.34,NW,315,3.3,3.3,100,0.00,,,0.00,Rainwise IP-100,2013-07-14 07:24:00,
2013-07-14 03:29:00,73.4,73.3,30.34,NW,315,3.3,3.7,100,0.00,,,0.00,Rainwise IP-100,2013-07-14 07:29:00,
2013-07-14 03:34:00,73.4,73.3,30.34,NW,315,0.0,3.7,100,0.00,,,0.00,Rainwise IP-100,2013-07-14 07:34:00,
2013-07-14 03:39:00,73.4,73.3,30.34,NW,315,1.2,4.0,100,0.00,,,0.00,Rainwise IP-100,2013-07-14 07:39:00,
2013-07-14 03:40:00,73.4,73.3,30.34,NW,315,0.0,4.0,100,0.00,,,0.00,Rainwise IP-100,2013-07-14 07:40:00,
2013-07-14 03:45:00,73.4,73.3,30.34,NW,315,1.9,3.5,100,0.00,,,0.00,Rainwise IP-100,2013-07-14 07:45:00,
2013-07-14 03:50:00,73.4,73.3,30.33,NW,315,1.6,3.3,100,0.00,,,0.00,Rainwise IP-100,2013-07-14 07:50:00,
2013-07-14 03:55:00,73.4,73.3,30.33,NW,315,1.4,2.3,100,0.00,,,0.00,Rainwise IP-100,2013-07-14 07:55:00,
2013-07-14 04:00:00,73.4,73.3,30.33,NW,315,1.4,1.9,100,0.00,,,0.00,Rainwise IP-100,2013-07-14 08:00:00,
2013-07-14 04:05:00,73.4,73.3,30.33,NW,315,0.0,2.1,100,0.00,,,0.00,Rainwise IP-100,2013-07-14 08:05:00,
2013-07-14 04:10:00,73.4,73.3,30.34,NW,315,1.6,2.1,100,0.00,,,0.00,Rainwise IP-100,2013-07-14 08:10:00,
2013-07-14 04:15:00,73.4,73.3,30.34,NW,315,0.0,1.9,100,0.00,,,0.00,Rainwise IP-100,2013-07-14 08:15:00,
2013-07-14 04:20:00,73.4,73.3,30.33,NW,315,0.0,0.0,100,0.00,,,0.00,Rainwise IP-100,2013-07-14 08:20:00,
2013-07-14 04:25:00,73.4,73.3,30.33,NW,315,0.0,0.0,100,0.00,,,0.00,Rainwise IP-100,2013-07-14 08:25:00,
2013-07-14 04:30:00,73.4,73.3,30.33,NW,315,0.0,0.0,100,0.00,,,0.00,Rainwise IP-100,2013-07-14 08:30:00,
2013-07-14 04:35:00,73.4,73.3,30.33,NW,315,0.0,0.0,100,0.00,,,0.00,Rainwise IP-100,2013-07-14 08:35:00,
2013-07-14 04:40:00,73.5,73.7,30.33,NW,315,0.0,1.4,100,0.00,,,0.00,Rainwise IP-100,2013-07-14 08:40:00,
2013-07-14 04:45:00,73.6,73.7,30.33,NW,315,0.0,1.6,100,0.00,,,0.00,Rainwise IP-100,2013-07-14 08:45:00,
2013-07-14 04:50:00,73.8,73.7,30.34,NW,315,0.0,2.8,100,0.00,,,0.00,Rainwise IP-100,2013-07-14 08:50:00,
2013-07-14 04:55:00,73.9,74.0,30.34,NW,315,1.6,3.0,100,0.00,,,0.00,Rainwise IP-100,2013-07-14 08:55:00,
2013-07-14 05:00:00,73.9,74.0,30.34,NW,315,2.8,4.0,100,0.00,,,0.00,Rainwise IP-100,2013-07-14 09:00:00,
2013-07-14 05:05:00,73.9,74.0,30.34,NW,315,0.0,3.3,100,0.00,,,0.00,Rainwise IP-100,2013-07-14 09:05:00,
2013-07-14 05:10:00,73.9,74.0,30.34,NW,315,1.2,2.1,100,0.00,,,0.00,Rainwise IP-100,2013-07-14 09:10:00,
2013-07-14 05:15:00,73.9,74.0,30.34,North,360,2.8,3.5,100,0.00,,,0.00,Rainwise IP-100,2013-07-14 09:15:00,
2013-07-14 05:20:00,73.9,74.0,30.34,North,360,0.0,4.0,100,0.00,,,0.00,Rainwise IP-100,2013-07-14 09:20:00,
2013-07-14 05:25:00,73.9,74.0,30.34,WSW,247,0.0,2.1,100,0.00,,,0.00,Rainwise IP-100,2013-07-14 09:25:00,
2013-07-14 05:30:00,73.9,74.0,30.34,WSW,247,1.2,1.9,100,0.00,,,0.00,Rainwise IP-100,2013-07-14 09:30:00,
2013-07-14 05:35:00,73.9,74.0,30.34,North,360,1.9,2.8,100,0.00,,,0.00,Rainwise IP-100,2013-07-14 09:35:00,
2013-07-14 05:40:00,73.8,73.7,30.34,North,360,0.0,4.0,100,0.00,,,0.00,Rainwise IP-100,2013-07-14 09:40:00,
2013-07-14 05:45:00,73.8,73.7,30.34,NW,315,3.7,4.4,100,0.00,,,0.00,Rainwise IP-100,2013-07-14 09:45:00,
2013-07-14 05:50:00,73.8,73.7,30.34,NW,315,1.9,4.7,100,0.00,,,0.00,Rainwise IP-100,2013-07-14 09:50:00,
2013-07-14 05:55:00,73.8,73.7,30.34,NW,315,1.6,4.2,100,0.06,,,0.01,Rainwise IP-100,2013-07-14 09:55:00,
2013-07-14 06:00:00,73.7,73.7,30.34,NW,315,3.0,4.0,100,0.06,,,0.01,Rainwise IP-100,2013-07-14 10:00:00,
2013-07-14 06:05:00,73.7,73.7,30.34,NW,315,2.6,4.2,100,0.00,,,0.01,Rainwise IP-100,2013-07-14 10:05:00,
2013-07-14 06:10:00,73.8,73.7,30.34,NW,315,2.6,3.3,100,0.00,,,0.01,Rainwise IP-100,2013-07-14 10:10:00,
2013-07-14 06:15:00,73.9,74.0,30.34,WSW,247,1.6,4.0,100,0.00,,,0.01,Rainwise IP-100,2013-07-14 10:15:00,
2013-07-14 06:20:00,73.9,74.0,30.34,WSW,247,1.4,1.9,100,0.00,,,0.01,Rainwise IP-100,2013-07-14 10:20:00,
2013-07-14 06:25:00,73.9,74.0,30.34,WSW,247,0.0,1.9,100,0.00,,,0.01,Rainwise IP-100,2013-07-14 10:25:00,
2013-07-14 06:30:00,74.0,74.0,30.34,WSW,247,0.0,0.0,100,0.00,,,0.01,Rainwise IP-100,2013-07-14 10:30:00,
2013-07-14 06:35:00,74.1,74.0,30.34,WSW,247,0.0,1.4,100,0.00,,,0.01,Rainwise IP-100,2013-07-14 10:35:00,
2013-07-14 06:40:00,74.1,74.0,30.34,WSW,247,0.0,1.6,100,0.00,,,0.01,Rainwise IP-100,2013-07-14 10:40:00,
2013-07-14 06:45:00,74.1,74.0,30.34,WSW,247,1.6,1.6,100,0.00,,,0.01,Rainwise IP-100,2013-07-14 10:45:00,
2013-07-14 06:50:00,74.2,74.3,30.35,NW,315,1.9,3.5,100,0.00,,,0.01,Rainwise IP-100,2013-07-14 10:50:00,
2013-07-14 06:55:00,74.3,74.3,30.35,NW,315,1.6,3.5,100,0.00,,,0.01,Rainwise IP-100,2013-07-14 10:55:00,
2013-07-14 07:00:00,74.4,74.3,30.35,NW,315,0.0,3.0,100,0.00,,,0.01,Rainwise IP-100,2013-07-14 11:00:00,
2013-07-14 07:05:00,74.5,74.7,30.34,NW,315,2.3,3.0,100,0.00,,,0.01,Rainwise IP-100,2013-07-14 11:05:00,
2013-07-14 07:10:00,74.5,74.7,30.34,NW,315,4.4,5.1,100,0.00,,,0.01,Rainwise IP-100,2013-07-14 11:10:00,
2013-07-14 07:15:00,74.6,74.7,30.34,NW,315,3.7,5.1,100,0.00,,,0.01,Rainwise IP-100,2013-07-14 11:15:00,
2013-07-14 07:20:00,74.7,74.7,30.34,NW,315,4.9,7.2,100,0.00,,,0.01,Rainwise IP-100,2013-07-14 11:20:00,
2013-07-14 07:25:00,74.8,74.7,30.34,NW,315,7.2,7.2,100,0.00,,,0.01,Rainwise IP-100,2013-07-14 11:25:00,
2013-07-14 07:30:00,74.8,74.7,30.34,WNW,292,4.9,9.6,100,0.00,,,0.01,Rainwise IP-100,2013-07-14 11:30:00,
2013-07-14 07:35:00,74.8,74.7,30.34,WNW,292,6.1,7.2,100,0.00,,,0.01,Rainwise IP-100,2013-07-14 11:35:00,
2013-07-14 07:40:00,74.9,75.0,30.35,WNW,292,7.7,7.7,100,0.00,,,0.01,Rainwise IP-100,2013-07-14 11:40:00,
2013-07-14 07:45:00,74.9,75.0,30.35,WNW,292,5.6,9.1,100,0.00,,,0.01,Rainwise IP-100,2013-07-14 11:45:00,
2013-07-14 07:50:00,75.0,75.0,30.35,WNW,292,7.7,8.2,100,0.00,,,0.01,Rainwise IP-100,2013-07-14 11:50:00,
2013-07-14 07:55:00,75.0,75.0,30.35,WNW,292,5.1,9.3,100,0.00,,,0.01,Rainwise IP-100,2013-07-14 11:55:00,
2013-07-14 08:00:00,75.1,75.0,30.35,NW,315,3.3,7.0,100,0.00,,,0.01,Rainwise IP-100,2013-07-14 12:00:00,
2013-07-14 08:05:00,75.2,75.0,30.35,WNW,292,2.8,7.9,100,0.00,,,0.01,Rainwise IP-100,2013-07-14 12:05:00,
2013-07-14 08:10:00,75.3,75.5,30.35,WNW,292,3.7,8.2,100,0.00,,,0.01,Rainwise IP-100,2013-07-14 12:10:00,
2013-07-14 08:15:00,75.5,75.5,30.35,WNW,292,3.5,5.8,100,0.00,,,0.01,Rainwise IP-100,2013-07-14 12:15:00,
2013-07-14 08:20:00,75.8,76.0,30.35,NW,315,4.7,4.7,100,0.00,,,0.01,Rainwise IP-100,2013-07-14 12:20:00,
2013-07-14 08:25:00,75.9,76.0,30.35,WNW,292,4.4,7.9,100,0.00,,,0.01,Rainwise IP-100,2013-07-14 12:25:00,
2013-07-14 08:30:00,76.0,76.0,30.35,NNW,337,5.4,7.7,100,0.00,,,0.01,Rainwise IP-100,2013-07-14 12:30:00,
2013-07-14 08:35:00,76.1,76.0,30.35,WNW,292,5.1,5.8,100,0.00,,,0.01,Rainwise IP-100,2013-07-14 12:35:00,
2013-07-14 08:40:00,76.0,76.0,30.35,WNW,292,3.3,6.5,100,0.00,,,0.01,Rainwise IP-100,2013-07-14 12:40:00,
2013-07-14 08:45:00,76.0,76.0,30.35,WNW,292,1.2,4.7,100,0.00,,,0.01,Rainwise IP-100,2013-07-14 12:45:00,
2013-07-14 08:50:00,76.1,76.0,30.35,WNW,292,3.7,4.9,100,0.00,,,0.01,Rainwise IP-100,2013-07-14 12:50:00,
2013-07-14 08:55:00,76.3,76.3,30.35,WNW,292,2.8,7.7,100,0.00,,,0.01,Rainwise IP-100,2013-07-14 12:55:00,
2013-07-14 09:00:00,76.5,76.5,30.35,WNW,292,3.0,7.5,100,0.00,,,0.01,Rainwise IP-100,2013-07-14 13:00:00,
2013-07-14 09:06:00,76.9,77.0,30.34,WNW,292,2.6,4.7,100,0.00,,,0.01,Rainwise IP-100,2013-07-14 13:06:00,
2013-07-14 09:11:00,77.1,77.0,30.34,WNW,292,3.3,7.5,100,0.00,,,0.01,Rainwise IP-100,2013-07-14 13:11:00,
2013-07-14 09:16:00,77.2,77.3,30.34,WNW,292,2.6,7.9,100,0.00,,,0.01,Rainwise IP-100,2013-07-14 13:16:00,
2013-07-14 09:21:00,77.3,77.3,30.34,WNW,292,5.4,7.0,100,0.00,,,0.01,Rainwise IP-100,2013-07-14 13:21:00,
2013-07-14 09:26:00,77.7,77.7,30.34,WNW,292,5.6,7.5,100,0.00,,,0.01,Rainwise IP-100,2013-07-14 13:26:00,
2013-07-14 09:31:00,78.2,78.0,30.34,WNW,292,4.7,7.0,99,0.00,,,0.01,Rainwise IP-100,2013-07-14 13:31:00,
2013-07-14 09:36:00,78.5,78.0,30.34,WNW,292,5.8,10.7,98,0.00,,,0.01,Rainwise IP-100,2013-07-14 13:36:00,
2013-07-14 09:41:00,78.8,77.7,30.34,WNW,292,6.5,10.3,97,0.00,,,0.01,Rainwise IP-100,2013-07-14 13:41:00,
2013-07-14 09:46:00,79.0,78.0,30.34,WNW,292,5.6,7.5,97,0.00,,,0.01,Rainwise IP-100,2013-07-14 13:46:00,
2013-07-14 09:51:00,79.1,78.0,30.34,SW,225,2.6,8.4,97,0.00,,,0.01,Rainwise IP-100,2013-07-14 13:51:00,
2013-07-14 09:56:00,79.4,78.0,30.34,WNW,292,8.4,10.7,96,0.00,,,0.01,Rainwise IP-100,2013-07-14 13:56:00,
2013-07-14 10:01:00,79.6,78.0,30.33,NNW,337,4.2,10.7,95,0.00,,,0.01,Rainwise IP-100,2013-07-14 14:01:00,
2013-07-14 10:06:00,79.6,78.0,30.33,WNW,292,3.5,6.8,95,0.00,,,0.01,Rainwise IP-100,2013-07-14 14:06:00,
2013-07-14 10:11:00,79.8,77.7,30.33,NW,315,3.7,8.6,94,0.00,,,0.01,Rainwise IP-100,2013-07-14 14:11:00,
2013-07-14 10:16:00,80.1,77.7,30.33,NNW,337,1.2,10.0,93,0.00,,,0.01,Rainwise IP-100,2013-07-14 14:16:00,
2013-07-14 10:21:00,80.5,78.3,30.33,WSW,247,1.6,6.8,93,0.00,,,0.01,Rainwise IP-100,2013-07-14 14:21:00,
2013-07-14 10:26:00,80.6,78.0,30.34,WNW,292,5.6,9.1,92,0.00,,,0.01,Rainwise IP-100,2013-07-14 14:26:00,
2013-07-14 10:31:00,80.5,78.0,30.33,WNW,292,8.4,9.1,92,0.00,,,0.01,Rainwise IP-100,2013-07-14 14:31:00,
2013-07-14 10:36:00,80.4,77.7,30.33,NNW,337,4.9,8.4,91,0.00,,,0.01,Rainwise IP-100,2013-07-14 14:36:00,
2013-07-14 10:37:00,80.5,77.7,30.33,NW,315,6.5,7.9,91,0.00,,,0.01,Rainwise IP-100,2013-07-14 14:37:00,
2013-07-14 10:42:00,80.6,77.3,30.33,NW,315,11.4,11.7,90,0.00,,,0.01,Rainwise IP-100,2013-07-14 14:42:00,
2013-07-14 10:47:00,80.7,77.0,30.33,WNW,292,6.3,11.4,89,0.00,,,0.01,Rainwise IP-100,2013-07-14 14:47:00,
2013-07-14 10:52:00,80.7,77.0,30.33,WNW,292,5.1,10.0,89,0.00,,,0.01,Rainwise IP-100,2013-07-14 14:52:00,
2013-07-14 10:57:00,80.7,77.0,30.32,WNW,292,5.1,7.2,89,0.00,,,0.01,Rainwise IP-100,2013-07-14 14:57:00,
2013-07-14 11:02:00,80.9,77.0,30.33,WNW,292,3.7,8.6,88,0.00,,,0.01,Rainwise IP-100,2013-07-14 15:02:00,
2013-07-14 11:07:00,80.9,77.0,30.33,WNW,292,2.6,6.3,88,0.00,,,0.01,Rainwise IP-100,2013-07-14 15:07:00,
2013-07-14 11:12:00,81.5,77.3,30.32,WNW,292,7.9,7.9,87,0.00,,,0.01,Rainwise IP-100,2013-07-14 15:12:00,
2013-07-14 11:17:00,82.2,77.3,30.32,WNW,292,4.0,8.4,86,0.00,,,0.01,Rainwise IP-100,2013-07-14 15:17:00,
2013-07-14 11:22:00,82.3,77.0,30.32,WSW,247,2.3,6.3,85,0.00,,,0.01,Rainwise IP-100,2013-07-14 15:22:00,
2013-07-14 11:27:00,82.4,77.0,30.32,WNW,292,5.1,9.1,84,0.00,,,0.01,Rainwise IP-100,2013-07-14 15:27:00,
2013-07-14 11:32:00,82.5,76.8,30.32,WNW,292,4.2,6.8,83,0.00,,,0.01,Rainwise IP-100,2013-07-14 15:32:00,
2013-07-14 11:37:00,82.5,76.8,30.32,WNW,292,4.0,7.5,83,0.00,,,0.01,Rainwise IP-100,2013-07-14 15:37:00,
2013-07-14 11:42:00,82.7,77.3,30.32,West,270,2.3,7.7,84,0.00,,,0.01,Rainwise IP-100,2013-07-14 15:42:00,
2013-07-14 11:47:00,82.9,77.7,30.32,WNW,292,2.1,6.5,84,0.00,,,0.01,Rainwise IP-100,2013-07-14 15:47:00,
2013-07-14 11:52:00,83.1,77.7,30.32,SW,225,4.2,5.8,84,0.00,,,0.01,Rainwise IP-100,2013-07-14 15:52:00,
2013-07-14 11:57:00,83.8,78.3,30.32,WNW,292,4.2,6.3,84,0.00,,,0.01,Rainwise IP-100,2013-07-14 15:57:00,
2013-07-14 12:02:00,84.1,78.3,30.32,WNW,292,2.6,6.1,83,0.00,,,0.01,Rainwise IP-100,2013-07-14 16:02:00,
2013-07-14 12:07:00,83.9,78.0,30.32,WNW,292,3.3,6.3,82,0.00,,,0.01,Rainwise IP-100,2013-07-14 16:07:00,
2013-07-14 12:12:00,83.8,77.7,30.32,WNW,292,1.9,9.8,82,0.00,,,0.01,Rainwise IP-100,2013-07-14 16:12:00,
2013-07-14 12:17:00,83.8,78.0,30.32,WSW,247,3.7,6.5,83,0.00,,,0.01,Rainwise IP-100,2013-07-14 16:17:00,
2013-07-14 12:22:00,83.7,77.7,30.32,SSW,202,2.6,8.2,82,0.00,,,0.01,Rainwise IP-100,2013-07-14 16:22:00,
2013-07-14 12:27:00,83.6,77.3,30.32,West,270,2.1,7.7,82,0.00,,,0.01,Rainwise IP-100,2013-07-14 16:27:00,
2013-07-14 12:32:00,83.8,77.7,30.31,WNW,292,3.5,7.0,82,0.00,,,0.01,Rainwise IP-100,2013-07-14 16:32:00,
2013-07-14 12:37:00,83.9,78.0,30.32,WNW,292,4.4,6.1,82,0.00,,,0.01,Rainwise IP-100,2013-07-14 16:37:00,
2013-07-14 12:42:00,83.8,77.7,30.32,NNW,337,2.8,7.5,82,0.00,,,0.01,Rainwise IP-100,2013-07-14 16:42:00,
2013-07-14 12:47:00,83.7,77.7,30.31,WNW,292,1.6,6.8,82,0.00,,,0.01,Rainwise IP-100,2013-07-14 16:47:00,
2013-07-14 12:52:00,83.9,78.3,30.31,West,270,6.1,7.0,83,0.00,,,0.01,Rainwise IP-100,2013-07-14 16:52:00,
2013-07-14 12:57:00,84.1,78.3,30.31,WSW,247,0.0,9.6,83,0.00,,,0.01,Rainwise IP-100,2013-07-14 16:57:00,
2013-07-14 13:02:00,84.0,78.0,30.32,WSW,247,2.6,6.3,82,0.00,,,0.01,Rainwise IP-100,2013-07-14 17:02:00,
2013-07-14 13:07:00,83.9,78.0,30.31,SSW,202,3.3,9.1,82,0.00,,,0.01,Rainwise IP-100,2013-07-14 17:07:00,
2013-07-14 13:12:00,83.6,77.3,30.32,WNW,292,1.9,7.0,82,0.00,,,0.01,Rainwise IP-100,2013-07-14 17:12:00,
2013-07-14 13:17:00,83.5,77.3,30.31,WNW,292,3.7,6.3,82,0.00,,,0.01,Rainwise IP-100,2013-07-14 17:17:00,
2013-07-14 13:22:00,83.7,77.7,30.31,WNW,292,4.0,9.8,82,0.00,,,0.01,Rainwise IP-100,2013-07-14 17:22:00,
2013-07-14 13:27:00,84.0,78.0,30.31,WSW,247,4.9,8.6,82,0.00,,,0.01,Rainwise IP-100,2013-07-14 17:27:00,
2013-07-14 13:32:00,84.3,77.7,30.31,WSW,247,2.1,7.0,81,0.00,,,0.01,Rainwise IP-100,2013-07-14 17:32:00,
2013-07-14 13:37:00,84.2,77.7,30.31,WNW,292,4.7,11.2,81,0.00,,,0.01,Rainwise IP-100,2013-07-14 17:37:00,
2013-07-14 13:42:00,83.8,77.7,30.31,WSW,247,3.3,10.7,82,0.00,,,0.01,Rainwise IP-100,2013-07-14 17:42:00,
2013-07-14 13:47:00,83.0,76.8,30.31,WNW,292,7.5,10.7,82,0.00,,,0.01,Rainwise IP-100,2013-07-14 17:47:00,
2013-07-14 13:52:00,82.4,76.8,30.30,WSW,247,3.7,11.4,83,0.00,,,0.01,Rainwise IP-100,2013-07-14 17:52:00,
2013-07-14 13:57:00,82.3,76.8,30.30,WNW,292,7.2,9.1,84,0.00,,,0.01,Rainwise IP-100,2013-07-14 17:57:00,
2013-07-14 14:02:00,82.6,77.0,30.30,WSW,247,5.1,8.2,84,0.00,,,0.01,Rainwise IP-100,2013-07-14 18:02:00,
2013-07-14 14:07:00,83.3,78.0,30.30,South,180,5.8,7.5,84,0.00,,,0.01,Rainwise IP-100,2013-07-14 18:07:00,
2013-07-14 14:12:00,83.9,78.3,30.30,SSW,202,1.4,7.5,83,0.00,,,0.01,Rainwise IP-100,2013-07-14 18:12:00,
2013-07-14 14:17:00,84.2,77.7,30.30,SSW,202,6.1,8.2,81,0.00,,,0.01,Rainwise IP-100,2013-07-14 18:17:00,
2013-07-14 14:22:00,84.0,77.7,30.30,SSE,157,5.4,8.6,81,0.00,,,0.01,Rainwise IP-100,2013-07-14 18:22:00,
2013-07-14 14:27:00,83.9,77.7,30.30,SSE,157,6.5,8.2,81,0.00,,,0.01,Rainwise IP-100,2013-07-14 18:27:00,
2013-07-14 14:32:00,84.2,77.7,30.30,SSW,202,3.7,7.7,81,0.00,,,0.01,Rainwise IP-100,2013-07-14 18:32:00,
2013-07-14 14:37:00,84.5,78.0,30.30,SW,225,5.6,8.2,81,0.00,,,0.01,Rainwise IP-100,2013-07-14 18:37:00,
2013-07-14 14:42:00,84.5,78.0,30.30,SSE,157,0.0,6.8,81,0.00,,,0.01,Rainwise IP-100,2013-07-14 18:42:00,
2013-07-14 14:47:00,84.6,77.7,30.29,SSE,157,1.6,9.8,80,0.00,,,0.01,Rainwise IP-100,2013-07-14 18:47:00,
2013-07-14 14:52:00,84.8,77.7,30.30,SW,225,5.4,6.5,80,0.00,,,0.01,Rainwise IP-100,2013-07-14 18:52:00,
2013-07-14 14:57:00,84.9,78.0,30.30,SSW,202,1.6,8.4,80,0.00,,,0.01,Rainwise IP-100,2013-07-14 18:57:00,
2013-07-14 15:02:00,85.0,78.0,30.29,SSW,202,2.1,5.4,80,0.00,,,0.01,Rainwise IP-100,2013-07-14 19:02:00,
2013-07-14 15:07:00,85.0,77.7,30.28,ESE,112,1.9,5.1,79,0.00,,,0.01,Rainwise IP-100,2013-07-14 19:07:00,
2013-07-14 15:12:00,84.8,77.7,30.29,WSW,247,0.0,4.2,80,0.00,,,0.01,Rainwise IP-100,2013-07-14 19:12:00,
2013-07-14 15:17:00,84.2,77.3,30.29,West,270,0.0,9.8,80,0.00,,,0.01,Rainwise IP-100,2013-07-14 19:17:00,
2013-07-14 15:22:00,83.7,77.0,30.29,WNW,292,5.8,5.8,80,0.00,,,0.01,Rainwise IP-100,2013-07-14 19:22:00,
2013-07-14 15:27:00,83.5,76.8,30.28,WNW,292,6.3,9.6,80,0.00,,,0.01,Rainwise IP-100,2013-07-14 19:27:00,
2013-07-14 15:32:00,83.7,77.0,30.28,SW,225,2.3,8.4,80,0.00,,,0.01,Rainwise IP-100,2013-07-14 19:32:00,
2013-07-14 15:37:00,83.9,77.0,30.27,SSW,202,3.7,9.8,80,0.00,,,0.01,Rainwise IP-100,2013-07-14 19:37:00,
2013-07-14 15:42:00,84.4,77.3,30.28,SSW,202,2.8,12.4,80,0.00,,,0.01,Rainwise IP-100,2013-07-14 19:42:00,
2013-07-14 15:47:00,85.1,77.7,30.28,WNW,292,2.8,4.9,79,0.00,,,0.01,Rainwise IP-100,2013-07-14 19:47:00,
2013-07-14 15:52:00,85.5,77.7,30.28,WNW,292,2.1,7.9,78,0.00,,,0.01,Rainwise IP-100,2013-07-14 19:52:00,
2013-07-14 15:57:00,85.2,77.3,30.27,WNW,292,4.0,5.8,78,0.00,,,0.01,Rainwise IP-100,2013-07-14 19:57:00,
2013-07-14 16:02:00,84.9,77.0,30.28,WNW,292,2.6,9.8,78,0.00,,,0.01,Rainwise IP-100,2013-07-14 20:02:00,
2013-07-14 16:07:00,83.9,76.5,30.28,WNW,292,3.7,10.7,78,0.00,,,0.01,Rainwise IP-100,2013-07-14 20:07:00,
2013-07-14 16:12:00,82.8,75.5,30.28,West,270,0.0,11.4,79,0.00,,,0.01,Rainwise IP-100,2013-07-14 20:12:00,
2013-07-14 16:17:00,83.2,76.5,30.27,WNW,292,3.3,7.2,80,0.00,,,0.01,Rainwise IP-100,2013-07-14 20:17:00,
2013-07-14 16:22:00,83.5,76.8,30.27,SSW,202,1.4,11.0,80,0.00,,,0.01,Rainwise IP-100,2013-07-14 20:22:00,
2013-07-14 16:27:00,83.3,76.5,30.27,West,270,5.6,9.8,80,0.00,,,0.01,Rainwise IP-100,2013-07-14 20:27:00,
2013-07-14 16:32:00,83.4,76.8,30.27,WNW,292,4.0,10.3,80,0.00,,,0.01,Rainwise IP-100,2013-07-14 20:32:00,
2013-07-14 16:37:00,83.4,76.8,30.27,WSW,247,4.9,8.4,80,0.00,,,0.01,Rainwise IP-100,2013-07-14 20:37:00,
2013-07-14 16:42:00,83.3,76.5,30.27,WNW,292,1.2,12.8,80,0.00,,,0.01,Rainwise IP-100,2013-07-14 20:42:00,
2013-07-14 16:47:00,83.6,76.8,30.27,West,270,9.6,9.6,80,0.00,,,0.01,Rainwise IP-100,2013-07-14 20:47:00,
2013-07-14 16:52:00,83.2,76.5,30.27,WNW,292,4.2,11.7,80,0.00,,,0.01,Rainwise IP-100,2013-07-14 20:52:00,
2013-07-14 16:57:00,82.7,76.0,30.26,SW,225,5.6,9.6,80,0.00,,,0.01,Rainwise IP-100,2013-07-14 20:57:00,
2013-07-14 17:02:00,82.6,76.3,30.27,West,270,5.6,9.3,81,0.00,,,0.01,Rainwise IP-100,2013-07-14 21:02:00,
2013-07-14 17:07:00,82.1,76.0,30.26,WNW,292,2.8,12.1,82,0.00,,,0.01,Rainwise IP-100,2013-07-14 21:07:00,
2013-07-14 17:12:00,81.4,76.0,30.26,WNW,292,2.1,8.6,83,0.00,,,0.01,Rainwise IP-100,2013-07-14 21:12:00,
2013-07-14 17:17:00,80.6,75.0,30.27,WNW,292,8.2,13.3,84,0.00,,,0.01,Rainwise IP-100,2013-07-14 21:17:00,
2013-07-14 17:22:00,79.9,75.0,30.27,WNW,292,5.4,11.7,85,0.00,,,0.01,Rainwise IP-100,2013-07-14 21:22:00,
2013-07-14 17:27:00,79.7,75.0,30.26,WSW,247,3.0,14.5,86,0.00,,,0.01,Rainwise IP-100,2013-07-14 21:27:00,
2013-07-14 17:32:00,79.8,75.5,30.26,West,270,4.4,9.8,87,0.00,,,0.01,Rainwise IP-100,2013-07-14 21:32:00,
2013-07-14 17:37:00,79.9,76.0,30.26,WSW,247,2.6,9.3,87,0.00,,,0.01,Rainwise IP-100,2013-07-14 21:37:00,
2013-07-14 17:42:00,79.7,75.5,30.26,NW,315,3.7,8.2,87,0.00,,,0.01,Rainwise IP-100,2013-07-14 21:42:00,
2013-07-14 17:48:00,79.7,75.5,30.26,NNW,337,5.1,8.9,87,0.00,,,0.01,Rainwise IP-100,2013-07-14 21:48:00,
2013-07-14 17:53:00,79.8,75.5,30.25,WSW,247,2.3,11.0,87,0.00,,,0.01,Rainwise IP-100,2013-07-14 21:53:00,
2013-07-14 17:57:00,79.7,75.5,30.26,West,270,2.6,9.8,87,0.00,,,0.01,Rainwise IP-100,2013-07-14 21:57:00,
2013-07-14 18:02:00,79.3,75.5,30.26,WSW,247,4.7,9.3,88,0.00,,,0.01,Rainwise IP-100,2013-07-14 22:02:00,
2013-07-14 18:08:00,78.9,75.0,30.26,WNW,292,7.0,9.3,88,0.00,,,0.01,Rainwise IP-100,2013-07-14 22:08:00,
2013-07-14 18:13:00,78.7,75.0,30.25,WNW,292,4.9,11.2,89,0.00,,,0.01,Rainwise IP-100,2013-07-14 22:13:00,
2013-07-14 18:18:00,78.5,75.0,30.25,WNW,292,3.3,9.3,89,0.00,,,0.01,Rainwise IP-100,2013-07-14 22:18:00,
2013-07-14 18:23:00,78.1,74.3,30.25,WNW,292,2.3,10.0,89,0.00,,,0.01,Rainwise IP-100,2013-07-14 22:23:00,
2013-07-14 18:28:00,78.0,74.7,30.24,WSW,247,2.6,7.5,90,0.00,,,0.01,Rainwise IP-100,2013-07-14 22:28:00,
2013-07-14 18:33:00,78.2,75.5,30.26,West,270,2.8,8.6,91,0.00,,,0.01,Rainwise IP-100,2013-07-14 22:33:00,
2013-07-14 18:38:00,78.5,75.5,30.25,WNW,292,1.2,8.9,90,0.00,,,0.01,Rainwise IP-100,2013-07-14 22:38:00,
2013-07-14 18:43:00,78.7,75.5,30.26,WNW,292,1.9,10.7,90,0.00,,,0.01,Rainwise IP-100,2013-07-14 22:43:00,
2013-07-14 18:48:00,78.9,76.0,30.25,WSW,247,4.0,8.2,90,0.00,,,0.01,Rainwise IP-100,2013-07-14 22:48:00,
2013-07-14 18:53:00,78.8,75.0,30.25,WNW,292,3.0,9.3,89,0.00,,,0.01,Rainwise IP-100,2013-07-14 22:53:00,
2013-07-14 18:58:00,78.9,76.0,30.25,WSW,247,3.5,5.4,90,0.00,,,0.01,Rainwise IP-100,2013-07-14 22:58:00,
2013-07-14 19:03:00,79.4,76.0,30.25,West,270,2.6,5.1,89,0.00,,,0.01,Rainwise IP-100,2013-07-14 23:03:00,
2013-07-14 19:08:00,79.6,76.3,30.26,WSW,247,0.0,4.0,89,0.00,,,0.01,Rainwise IP-100,2013-07-14 23:08:00,
2013-07-14 19:13:00,79.6,76.0,30.25,SSE,157,1.4,4.7,88,0.00,,,0.01,Rainwise IP-100,2013-07-14 23:13:00,
2013-07-14 19:18:00,79.4,75.5,30.25,SE,135,1.9,5.6,88,0.00,,,0.01,Rainwise IP-100,2013-07-14 23:18:00,
2013-07-14 19:23:00,79.2,75.5,30.25,WNW,292,0.0,5.6,88,0.00,,,0.01,Rainwise IP-100,2013-07-14 23:23:00,
2013-07-14 19:28:00,79.2,75.5,30.25,WNW,292,0.0,3.3,88,0.00,,,0.01,Rainwise IP-100,2013-07-14 23:28:00,
2013-07-14 19:33:00,79.0,75.5,30.25,WNW,292,0.0,2.6,89,0.00,,,0.01,Rainwise IP-100,2013-07-14 23:33:00,
2013-07-14 19:38:00,78.9,75.5,30.25,WNW,292,0.0,2.3,89,0.00,,,0.01,Rainwise IP-100,2013-07-14 23:38:00,
2013-07-14 19:43:00,78.9,75.5,30.25,NW,315,0.0,2.1,89,0.00,,,0.01,Rainwise IP-100,2013-07-14 23:43:00,
2013-07-14 19:48:00,78.7,75.0,30.26,ENE,67,2.8,3.5,89,0.00,,,0.01,Rainwise IP-100,2013-07-14 23:48:00,
2013-07-14 19:53:00,78.3,75.0,30.25,East,90,2.3,3.5,90,0.00,,,0.01,Rainwise IP-100,2013-07-14 23:53:00,
2013-07-14 19:58:00,78.2,75.5,30.25,WNW,292,4.2,4.4,91,0.00,,,0.01,Rainwise IP-100,2013-07-14 23:58:00,
2013-07-14 20:03:00,78.3,75.5,30.26,NW,315,1.9,7.2,91,0.00,,,0.01,Rainwise IP-100,2013-07-15 00:03:00,
2013-07-14 20:08:00,78.5,76.0,30.25,NW,315,3.7,7.0,91,0.00,,,0.01,Rainwise IP-100,2013-07-15 00:08:00,
2013-07-14 20:13:00,78.7,76.0,30.26,WNW,292,3.7,7.5,91,0.00,,,0.01,Rainwise IP-100,2013-07-15 00:13:00,
2013-07-14 20:18:00,78.6,76.0,30.26,NW,315,3.7,6.1,91,0.00,,,0.01,Rainwise IP-100,2013-07-15 00:18:00,
2013-07-14 20:23:00,78.4,75.5,30.26,WNW,292,5.1,5.1,91,0.00,,,0.01,Rainwise IP-100,2013-07-15 00:23:00,
2013-07-14 20:28:00,78.3,75.5,30.26,NW,315,2.8,5.6,91,0.00,,,0.01,Rainwise IP-100,2013-07-15 00:28:00,
2013-07-14 20:33:00,78.3,75.5,30.26,WNW,292,1.6,3.7,91,0.00,,,0.01,Rainwise IP-100,2013-07-15 00:33:00,
2013-07-14 20:38:00,78.2,76.0,30.26,WNW,292,1.2,3.5,92,0.00,,,0.01,Rainwise IP-100,2013-07-15 00:38:00,
2013-07-14 20:43:00,78.1,75.5,30.26,WNW,292,1.2,2.8,92,0.00,,,0.01,Rainwise IP-100,2013-07-15 00:43:00,
2013-07-14 20:48:00,78.0,75.5,30.26,WNW,292,1.4,4.0,92,0.00,,,0.01,Rainwise IP-100,2013-07-15 00:48:00,
2013-07-14 20:53:00,77.9,75.5,30.26,WNW,292,2.3,4.2,92,0.00,,,0.01,Rainwise IP-100,2013-07-15 00:53:00,
2013-07-14 20:58:00,77.9,75.5,30.26,WNW,292,2.6,4.7,92,0.00,,,0.01,Rainwise IP-100,2013-07-15 00:58:00,
2013-07-14 21:05:00,77.6,75.0,30.26,WNW,292,8.4,8.4,92,0.00,,,0.01,Rainwise IP-100,2013-07-15 01:05:00,
2013-07-14 21:09:00,77.4,75.0,30.26,WNW,292,2.6,9.1,93,0.00,,,0.01,Rainwise IP-100,2013-07-15 01:09:00,
2013-07-14 21:14:00,77.1,74.7,30.26,WNW,292,4.4,6.8,93,0.00,,,0.01,Rainwise IP-100,2013-07-15 01:14:00,
2013-07-14 21:19:00,76.9,75.0,30.26,WNW,292,6.3,8.9,94,0.00,,,0.01,Rainwise IP-100,2013-07-15 01:19:00,
2013-07-14 21:24:00,76.8,74.7,30.26,WNW,292,3.7,6.3,94,0.00,,,0.01,Rainwise IP-100,2013-07-15 01:24:00,
2013-07-14 21:29:00,76.7,75.0,30.26,WNW,292,2.8,5.6,95,0.00,,,0.01,Rainwise IP-100,2013-07-15 01:29:00,
2013-07-14 21:34:00,76.6,74.7,30.26,WNW,292,3.5,6.1,95,0.00,,,0.01,Rainwise IP-100,2013-07-15 01:34:00,
2013-07-14 21:39:00,76.5,74.7,30.26,WNW,292,2.8,6.3,95,0.00,,,0.01,Rainwise IP-100,2013-07-15 01:39:00,
2013-07-14 21:44:00,76.4,74.7,30.26,WNW,292,3.0,4.0,95,0.00,,,0.01,Rainwise IP-100,2013-07-15 01:44:00,
2013-07-14 21:49:00,76.3,74.3,30.26,WNW,292,2.6,3.0,95,0.00,,,0.01,Rainwise IP-100,2013-07-15 01:49:00,
2013-07-14 21:54:00,76.3,74.3,30.26,WNW,292,2.1,3.0,95,0.00,,,0.01,Rainwise IP-100,2013-07-15 01:54:00,
2013-07-14 21:59:00,76.2,74.3,30.26,WNW,292,2.3,2.8,95,0.00,,,0.01,Rainwise IP-100,2013-07-15 01:59:00,
2013-07-14 22:04:00,76.2,74.7,30.26,WNW,292,2.3,3.5,96,0.00,,,0.01,Rainwise IP-100,2013-07-15 02:04:00,
2013-07-14 22:09:00,76.2,74.7,30.26,WNW,292,1.6,2.8,96,0.00,,,0.01,Rainwise IP-100,2013-07-15 02:09:00,
2013-07-14 22:14:00,76.1,74.3,30.26,WNW,292,3.5,3.5,96,0.00,,,0.01,Rainwise IP-100,2013-07-15 02:14:00,
2013-07-14 22:19:00,76.1,74.3,30.26,WNW,292,1.9,3.5,96,0.00,,,0.01,Rainwise IP-100,2013-07-15 02:19:00,
2013-07-14 22:24:00,76.0,74.3,30.26,WNW,292,0.0,3.0,96,0.00,,,0.01,Rainwise IP-100,2013-07-15 02:24:00,
2013-07-14 22:29:00,75.9,74.3,30.26,WNW,292,2.3,2.3,96,0.00,,,0.01,Rainwise IP-100,2013-07-15 02:29:00,
2013-07-14 22:34:00,75.9,74.3,30.26,WNW,292,2.1,2.6,96,0.00,,,0.01,Rainwise IP-100,2013-07-15 02:34:00,
2013-07-14 22:39:00,75.9,74.3,30.26,WNW,292,0.0,2.6,96,0.00,,,0.01,Rainwise IP-100,2013-07-15 02:39:00,
2013-07-14 22:44:00,75.7,74.0,30.26,WNW,292,2.1,4.2,96,0.00,,,0.01,Rainwise IP-100,2013-07-15 02:44:00,
2013-07-14 22:49:00,75.6,74.0,30.26,WNW,292,1.4,3.7,96,0.00,,,0.01,Rainwise IP-100,2013-07-15 02:49:00,
2013-07-14 22:54:00,75.7,74.0,30.25,WNW,292,1.4,4.0,96,0.00,,,0.01,Rainwise IP-100,2013-07-15 02:54:00,
2013-07-14 22:59:00,75.7,74.0,30.26,WNW,292,2.8,3.5,96,0.00,,,0.01,Rainwise IP-100,2013-07-15 02:59:00,
2013-07-14 23:04:00,75.7,74.0,30.26,WNW,292,2.6,4.0,96,0.00,,,0.01,Rainwise IP-100,2013-07-15 03:04:00,
2013-07-14 23:09:00,75.6,74.0,30.25,WNW,292,3.3,3.7,96,0.00,,,0.01,Rainwise IP-100,2013-07-15 03:09:00,
2013-07-14 23:14:00,75.6,74.0,30.25,WNW,292,3.3,4.4,96,0.00,,,0.01,Rainwise IP-100,2013-07-15 03:14:00,
2013-07-14 23:19:00,75.7,74.3,30.25,WNW,292,2.8,4.4,97,0.00,,,0.01,Rainwise IP-100,2013-07-15 03:19:00,
2013-07-14 23:24:00,75.7,74.3,30.26,WNW,292,3.0,4.9,97,0.00,,,0.01,Rainwise IP-100,2013-07-15 03:24:00,
2013-07-14 23:29:00,75.7,74.3,30.26,WNW,292,3.3,6.1,97,0.00,,,0.01,Rainwise IP-100,2013-07-15 03:29:00,
2013-07-14 23:34:00,75.8,74.7,30.25,WNW,292,2.8,6.5,97,0.00,,,0.01,Rainwise IP-100,2013-07-15 03:34:00,
2013-07-14 23:39:00,75.9,74.7,30.26,WNW,292,1.6,5.4,97,0.00,,,0.01,Rainwise IP-100,2013-07-15 03:39:00,
2013-07-14 23:44:00,75.9,74.7,30.26,WNW,292,2.8,4.4,97,0.00,,,0.01,Rainwise IP-100,2013-07-15 03:44:00,
2013-07-14 23:49:00,75.9,74.7,30.26,WNW,292,3.0,5.1,97,0.00,,,0.01,Rainwise IP-100,2013-07-15 03:49:00,
2013-07-14 23:54:00,75.9,74.7,30.25,WNW,292,3.3,4.9,97,0.00,,,0.01,Rainwise IP-100,2013-07-15 03:54:00,
2013-07-14 23:59:00,75.9,74.7,30.26,WNW,292,3.0,4.4,97,0.00,,,0.01,Rainwise IP-100,2013-07-15 03:59:00,